This is the latest recevied weather packets stored in our database for station/object KB1JL-13. If no packets are shown the sender has not sent any weather packets the latest 10 day(s).
| Time | Temp. | Humidity | Pressure | Rain* | Wind** | Luminosity | Snow |
|---|---|---|---|---|---|---|---|
| 1787851815 | 25° C | 80% | 1028.4 hPa | 0 mm | - | 212 W/m² | - |
| 1787851509 | 25° C | 81% | 1028.4 hPa | 0 mm | - | 178 W/m² | - |
| 1787851203 | 24.44° C | 82% | 1028.1 hPa | 0 mm | - | 145 W/m² | - |
| 1787850899 | 24.44° C | 83% | 1028.1 hPa | 0 mm | - | 123 W/m² | - |
| 1787850596 | 24.44° C | 83% | 1028.4 hPa | 0 mm | - | 113 W/m² | - |
| 1787850295 | 25° C | 83% | 1028.8 hPa | 0 mm | - | 132 W/m² | - |
| 1787849990 | 25° C | 82% | 1028.8 hPa | 0 mm | - | 144 W/m² | - |
| 1787849685 | 25° C | 84% | 1029.1 hPa | 0 mm | - | 279 W/m² | - |
| 1787849380 | 25.56° C | 84% | 1029.1 hPa | 0 mm | - | 206 W/m² | - |
| 1787849079 | 26.11° C | 81% | 1029.1 hPa | 0 mm | - | 279 W/m² | - |
| 1787848779 | 26.11° C | 83% | 1028.8 hPa | 0 mm | - | 617 W/m² | - |
| 1787848478 | 26.11° C | 83% | 1028.8 hPa | 0 mm | - | 389 W/m² | - |
| 1787848168 | 25.56° C | 83% | 1029.1 hPa | 0 mm | - | 843 W/m² | - |
| 1787847862 | 25.56° C | 82% | 1029.5 hPa | 0 mm | - | 364 W/m² | - |
| 1787847557 | 25.56° C | 84% | 1029.1 hPa | 0 mm | - | 340 W/m² | - |
| 1787847253 | 26.11° C | 85% | 1029.8 hPa | 0 mm | - | 373 W/m² | - |
| 1787846950 | 25.56° C | 85% | 1029.8 hPa | 0 mm | - | 783 W/m² | - |
| 1787846649 | 25° C | 88% | 1029.8 hPa | 0 mm | - | 566 W/m² | - |
| 1787846344 | 24.44° C | 90% | 1029.8 hPa | 0 mm | - | 396 W/m² | - |
| 1787846040 | 24.44° C | 90% | 1029.8 hPa | 0 mm | - | 224 W/m² | - |
| 1787845736 | 23.89° C | 90% | 1029.8 hPa | 0 mm | - | 203 W/m² | - |
| 1787845435 | 24.44° C | 91% | 1029.8 hPa | 0 mm | - | 282 W/m² | - |
| 1787845131 | 24.44° C | 90% | 1029.8 hPa | 0 mm | - | 151 W/m² | - |
| 1787844827 | 24.44° C | 90% | 1029.8 hPa | 0 mm | - | 270 W/m² | - |
| 1787844526 | 24.44° C | 90% | 1029.8 hPa | 0 mm | - | 379 W/m² | - |
* Rain latest hour (hover to see other rain measurements)
** Current wind speed in m/s (hover to see current wind gust speed)